This is the latest recevied weather packets stored in our database for station/object KC5EZZ-2. If no packets are shown the sender has not sent any weather packets the latest 10 day(s).
| Time | Temp. | Humidity | Pressure | Rain* | Wind** | Luminosity | Snow |
|---|---|---|---|---|---|---|---|
| 1777294397 | 23.89° C | - | - | 0 mm | 3.58 m/s, 190° | - | - |
| 1777294097 | 23.89° C | - | - | 0 mm | 3.13 m/s, 229° | - | - |
| 1777293798 | 23.33° C | - | - | 0 mm | 2.68 m/s, 207° | - | - |
| 1777293496 | 23.33° C | - | - | 0 mm | 2.68 m/s, 200° | - | - |
| 1777293204 | 22.78° C | - | - | 0 mm | 4.02 m/s, 203° | - | - |
| 1777293196 | 22.78° C | - | - | 0 mm | 4.02 m/s, 203° | - | - |
| 1777292934 | 22.78° C | - | - | 0 mm | 3.13 m/s, 212° | - | - |
| 1777292897 | 22.78° C | - | - | 0 mm | 3.13 m/s, 212° | - | - |
| 1777292626 | 22.78° C | - | - | 0 mm | 3.13 m/s, 243° | - | - |
| 1777292594 | 22.78° C | - | - | 0 mm | 3.13 m/s, 243° | - | - |
| 1777292295 | 22.78° C | - | - | 0 mm | 2.68 m/s, 188° | - | - |
| 1777291996 | 22.78° C | - | - | 0 mm | 2.68 m/s, 190° | - | - |
| 1777291693 | 22.78° C | - | - | 0 mm | 3.58 m/s, 183° | - | - |
| 1777291427 | 22.78° C | - | - | 0 mm | 2.68 m/s, 194° | - | - |
| 1777291394 | 22.78° C | - | - | 0 mm | 2.68 m/s, 194° | - | - |
| 1777291095 | 22.78° C | - | - | 0 mm | 1.79 m/s, 193° | - | - |
| 1777290827 | 22.78° C | - | - | 0 mm | 2.24 m/s, 197° | - | - |
| 1777290792 | 22.78° C | - | - | 0 mm | 2.24 m/s, 197° | - | - |
| 1777290493 | 22.78° C | - | - | 0 mm | 2.24 m/s, 221° | - | - |
| 1777290193 | 22.78° C | - | - | 0 mm | 3.13 m/s, 204° | - | - |
| 1777289891 | 22.78° C | - | - | 0 mm | 3.13 m/s, 205° | - | - |
| 1777289592 | 22.78° C | - | - | 0 mm | 3.13 m/s, 186° | - | - |
| 1777289292 | 22.78° C | - | - | 0 mm | 2.68 m/s, 191° | - | - |
| 1777288990 | 22.78° C | - | - | 0 mm | 2.68 m/s, 204° | - | - |
| 1777288690 | 22.78° C | - | - | 0 mm | 3.58 m/s, 205° | - | - |
* Rain latest hour (hover to see other rain measurements)
** Current wind speed in m/s (hover to see current wind gust speed)